Starlink 32478

operational
NORAD ID: 61726 Int'l Des: 2024-196 Owner: SPXS Country: US Constellation: starlink
LEOCIRCULAR

About Starlink 32478

Description loading...

Live Position

Loading 3D Globe...

Upcoming Passes

Altitude History

Altitude vs Time

uPlot chart will show altitude changes over time

Two-Line Element Set

1 61726U 24196V 25349.42001146 -.00000372 00000-0 -45496-6 0 9993
2 61726 53.1603 132.8263 0000461 62.0222 298.0825 15.30185041 64251
Epoch: Dec 15, 2025 • Age: 34 hours

Current Status

Altitude 485.1 km
Velocity 7.62 km/s
Sub-Earth Point -31.18°S, 51.99°W
Launch Date Oct 30, 2024
Age 1.1 years
Type internet

Technical Details

Classification Payload
Mass 730.00 kg
Dry Mass 700.00 kg
Total Mass 730.00 kg
Length 0.30 m
Diameter 4.10 m
Span 29.00 m
Shape Box + pan
Manufacturer SPXS
Bus Type Starlink V2M
Phase Status In Orbit
Owner/State SPXS/US

Large Constellations

Loading constellations...